Regional Weather Roundup
Issued by NWS

Home | Current Version | Previous Version | Text Only | Print | Product List | Glossary On
Versions: 1 2 3 4 5 6 7 8 9 10 11 12 13 14 15 16 17 18 19 20 21 22 23 24 25 26 27 28 29 30 31 32 33 34 35 36 37 38 39 40 41 42 43 44 45 46 47 48 49 50
000
ASUS43 KMKX 040500
RWRWI

WISCONSIN REGIONAL WEATHER ROUNDUP
NATIONAL WEATHER SERVICE MILWAUKEE/SULLIVAN WI
1200 AM CDT MON MAY 04 2015

NOTE: "FAIR" INDICATES FEW OR NO CLOUDS BELOW 12,000 FEET WITH NO
SIGNIFICANT WEATHER AND/OR OBSTRUCTIONS TO VISIBILITY.

WIZ001-002-006>008-014>016-023>028-040600-
NORTHWEST WISCONSIN

CITY           SKY/WX    TMP DP  RH WIND       PRES   REMARKS
SUPERIOR ARPT  MOCLDY    46  36  66 NW8       29.93R
ASHLAND        CLOUDY    51  47  86 SW7       29.92R
HAYWARD        CLOUDY    50  46  86 CALM      29.94R
SIREN          CLOUDY    50  43  78 CALM      29.94R
CUMBERLAND     CLOUDY    52  45  76 N8        29.92R
RICE LAKE      CLOUDY    52  48  86 NW3       29.92R
CHETEK         CLOUDY    54  54 100 CALM      29.90S FOG
LADYSMITH      CLOUDY    53  51  90 CALM      29.91S
EAU CLAIRE     CLOUDY    55  53  93 CALM      29.89R
MENOMONIE      CLOUDY    58  52  79 CALM      29.89R
NEW RICHMOND   CLOUDY    53  46  77 NW7       29.92R
OSCEOLA        MOCLDY    58  46  63 N3        29.96R
$$

WIZ003>005-009-010-017-018-040600-
NORTH CENTRAL WISCONSIN

CITY           SKY/WX    TMP DP  RH WIND       PRES   REMARKS
MANITOWISH WTR CLOUDY    55  47  75 N5        29.91R
ARBOR VITAE    CLOUDY    55  52  91 CALM      29.89S
WOODRUFF       CLOUDY    55  52  91 CALM      29.89S
RHINELANDER    CLOUDY    55  49  80 S3        29.92R
EAGLE RIVER    CLOUDY    53  52  94 CALM      29.89R
LAND O LAKES   CLOUDY    53  51  90 N9        29.91R
PHILLIPS       CLOUDY    52  52  98 CALM      29.89S
TOMAHAWK       CLOUDY    52  50  94 CALM      29.91S
MEDFORD        CLOUDY    56  55  95 N3        29.91R
MERRILL        CLOUDY    56  54  92 N6        29.92R
$$

WIZ029-030-035-036-043>047-040600-
CENTRAL WISCONSIN

CITY           SKY/WX    TMP DP  RH WIND       PRES   REMARKS
WAUSAU         CLOUDY    58  56  93 E6        29.87F
MOSINEE        LGT RAIN  55  55 100 E12       29.89F
MARSHFIELD     LGT RAIN  59  32  36 SE7       29.89R
STEVENS POINT  RAIN      56  56  97 NE6       29.91F
WAUPACA        DRIZZLE   63  57  80 N13G18    29.89R
WAUTOMA        RAIN      63  57  82 N10G18    29.91R FOG
WISC RAPIDS    LGT RAIN  58  55  90 SE6       29.90F
CAMP DOUGLAS   TSTM      59  59 100 SW5       29.93R FOG
$$

WIZ011>013-019>022-031-037>040-048>050-040600-
NORTHEAST WISCONSIN

CITY           SKY/WX    TMP DP  RH WIND       PRES   REMARKS
ANTIGO         RAIN      56  55  95 SW6       29.93F
SHAWANO        RAIN      65  56  72 W6G21     29.93R
OCONTO         CLOUDY    61  57  85 NE3       29.87F
STURGEON BAY   CLOUDY    57  52  82 NE5       29.92F
GREEN BAY      CLOUDY    66  55  67 CALM      29.89F
MANITOWOC      NOT AVBL
APPLETON       TSTM      63  54  72 W5        29.89R
CLINTONVILLE   LGT RAIN  61  55  82 NW8       29.92R
OSHKOSH        CLOUDY    64  55  72 W5        29.87R THUNDER
$$

WIZ032>034-041-042-053>061-040600-
SOUTHWEST WISCONSIN

CITY           SKY/WX    TMP DP  RH WIND       PRES   REMARKS
LA CROSSE      LGT RAIN  62  58  86 S8G22     29.82F
SPARTA         RAIN      59  58  96 SE5       29.92F
VIROQUA        CLOUDY    57  57 100 N5        29.94F
BOSCOBEL       RAIN      60  57  89 VRB3      29.95F FOG
PRAIRIE DU CHI RAIN      59  55  87 CALM      29.94R
PLATTEVILLE    CLOUDY    65  59  79 W20G41    29.93R
$$

WIZ056-057-062-063-064-067-068-040600-
SOUTH CENTRAL WISCONSIN

CITY           SKY/WX    TMP DP  RH WIND       PRES   REMARKS
REEDSBURG      RAIN      58  56  94 N5        29.93R
BARABOO/DELLS  NOT AVBL
LONE ROCK      TSTM      62  57  83 N12       29.93R
MINERAL POINT  LGT RAIN  63  57  82 W13G26    29.90R
MADISON        CLOUDY    63  56  78 VRB7      29.86R
MIDDLETON      CLOUDY    64  56  77 SW7       29.87S
WATERTOWN      CLOUDY    60  57  89 S3        29.87S
MONROE         CLOUDY    61  55  82 S10       29.87R
JANESVILLE     CLOUDY    63  55  77 S6        29.88S
$$

WIZ051-052-058>065-066-070>072-040600-
SOUTHEAST WISCONSIN

CITY           SKY/WX    TMP DP  RH WIND       PRES   REMARKS
MILWAUKEE      MOCLDY    63  54  72 S10       29.88F
WAUKESHA       CLOUDY    59  54  82 S5        29.90S
MILWAUKEE/TIMM CLOUDY    63  52  67 S6        29.88F
RACINE         MOCLDY    61  53  75 S6        29.90F
BURLINGTON     MOCLDY    58  54  85 S6        29.89S
KENOSHA        MOCLDY    63  55  75 S9        29.89F
FOND DU LAC    CLOUDY    64  54  69 NW17G26   29.89R
SHEBOYGAN      CLOUDY    63  54  72 SW8       29.85F
WEST BEND      CLOUDY    63  52  67 S6        29.86F
JUNEAU         LGT RAIN  61  55  82 SE8       29.87F
$$

LSZ147-162-040600-
LAKE SUPERIOR

STATION/POSITION TIME  TEMP    WIND        PRES    WAVE
                       AIR SEA DIR/SP/G            HT/PER
                 (UTC) (F)     (DEG/KT/KT) (MB)    (FT/S)
W MID LAKE BUOY  0350   47 35  230/  4/  6 1012.1R   1
DEVILS ISLAND    0400   49     280/ 11/ 12 1012.5R
PORT WING        0440   51      CALM  /  6 1013.2R
SAXON HARBOR     0400   51        CALM     1011.9R
$$

LMZ867-665-643>646-040600-
LAKE MICHIGAN

STATION/POSITION TIME  TEMP    WIND        PRES    WAVE
                       AIR SEA DIR/SP/G            HT/PER
                 (UTC) (F)     (DEG/KT/KT) (MB)    (FT/S)
CHAMBERS ISLAND  0400   57     260/  7/  8 1013.2R
NORTHPORT PIER   0400   50      CALM  /  3 1011.9R
SISTER BAY       0302   57     290/ 16/ 22   N/A
KEWAUNEE LAKESHO 0412   49     180/ 10/ 11 1010.7F
SHEBOYGAN LAKESH 0400   50     170/  8/  9 1012.4R
PORT WASHINGTON  0440   55     190/  7/  9 1011.9F
ATWATER BUOY     0400   52     160/ 10/ 12 1013.5R
MILWAUKEE LAKESH 0400   64     210/ 10/ 13   N/A
KENOSHA   LAKESH 0400   53     180/  9/ 12 1012.2F
$$

TC  - TEMPERATURE IN CELSIUS
VSB - VISIBILITY IN STATUTE MILES
WCI - WIND CHILL INDEX
HX  - HEAT INDEX



USA.gov is the U.S. government's official web portal to all federal, state and local government web resources and services.